Regional Weather Roundup
Issued by NWS

Home | Current Version | Previous Version | Graphics & Text | Print | Product List | Glossary On
Versions: 1 2 3 4 5 6 7 8 9 10 11 12 13 14 15 16 17 18 19 20 21 22 23 24 25 26 27 28 29 30 31 32 33 34 35 36 37 38 39 40 41 42 43 44 45 46
000
ASUS43 KMKX 240500
RWRWI

WISCONSIN REGIONAL WEATHER ROUNDUP
NATIONAL WEATHER SERVICE MILWAUKEE/SULLIVAN WI
1200 AM CDT WED AUG 24 2016

NOTE: "FAIR" INDICATES FEW OR NO CLOUDS BELOW 12,000 FEET WITH NO
SIGNIFICANT WEATHER AND/OR OBSTRUCTIONS TO VISIBILITY.

WIZ001-002-006>008-014>016-023>028-240600-
NORTHWEST WISCONSIN

CITY           SKY/WX    TMP DP  RH WIND       PRES   REMARKS
SUPERIOR ARPT  MOCLDY    69  65  85 S5        29.85F
ASHLAND        CLOUDY    72  63  73 S5        29.88F
HAYWARD        CLOUDY    70  63  78 S10G20    29.89F
SIREN          CLOUDY    71  63  76 S8        29.87F
CUMBERLAND     CLOUDY    66  63  88 S14       29.88F
RICE LAKE      CLOUDY    67  64  88 SE12      29.90F
CHETEK         NOT AVBL
LADYSMITH      DRIZZLE   70  64  79 SE5       29.93F
EAU CLAIRE     NOT AVBL
MENOMONIE      DRIZZLE   67  67  99 CALM      29.89R
NEW RICHMOND   RAIN      68  66  94 S8        29.87R
OSCEOLA        CLOUDY    69  69 100 S8        29.88S
$$

WIZ003>005-009-010-017-018-240600-
NORTH CENTRAL WISCONSIN

CITY           SKY/WX    TMP DP  RH WIND       PRES   REMARKS
MANITOWISH WTR NOT AVBL
ARBOR VITAE    CLOUDY    69  64  83 S7        29.98F
WOODRUFF       CLOUDY    69  64  83 S7        29.98F
RHINELANDER    CLOUDY    68  63  84 S9        29.99F
EAGLE RIVER    CLOUDY    65  59  81 S5        29.99F
LAND O LAKES   MOCLDY    67  61  80 S7        30.00F
PHILLIPS       CLOUDY    68  63  82 SE9       29.95F
TOMAHAWK       CLOUDY    66  61  84 S5        29.99F
MEDFORD        LGT RAIN  66  65  94 SE9       29.96F
MERRILL        CLOUDY    67  63  87 SE6       29.98F
$$

WIZ029-030-035-036-043>047-240600-
CENTRAL WISCONSIN

CITY           SKY/WX    TMP DP  RH WIND       PRES   REMARKS
WAUSAU         LGT RAIN  68  61  78 SE9       29.95F
MOSINEE        LGT RAIN  66  63  88 SE7       30.00F
MARSHFIELD     LGT RAIN  68  64  87 S6        29.97F
STEVENS POINT  LGT RAIN  69  61  76 SE3       30.01S
WAUPACA        CLOUDY    71  64  78 SE6       30.01S
WAUTOMA        CLOUDY    70  64  81 SE6       29.99F
WISC RAPIDS    LGT RAIN  67  66  97 SE6       29.99F
CAMP DOUGLAS   TSTM      70  66  88 SW3       29.98R
$$

WIZ011>013-019>022-031-037>040-048>050-240600-
NORTHEAST WISCONSIN

CITY           SKY/WX    TMP DP  RH WIND       PRES   REMARKS
ANTIGO         CLOUDY    64  62  93 S6        30.03F
SHAWANO        CLOUDY    71  62  73 CALM      30.02F
OCONTO         NOT AVBL
STURGEON BAY   CLOUDY    67  63  87 S7        30.03F
GREEN BAY      PTCLDY    67  64  90 S6        30.02F
MANITOWOC      NOT AVBL
APPLETON       CLOUDY    70  59  68 S12       30.00F
CLINTONVILLE   CLOUDY    68  61  77 S3        30.01F
OSHKOSH        MOCLDY    69  61  75 S9        30.01F
$$

WIZ032>034-041-042-053>061-240600-
SOUTHWEST WISCONSIN

CITY           SKY/WX    TMP DP  RH WIND       PRES   REMARKS
LA CROSSE      RAIN      68  32  26 SE10      29.93F
SPARTA         RAIN      66  66  97 CALM      29.99R
VIROQUA        CLOUDY    65  65 100 W6        30.02R
BOSCOBEL       TSTM      69  68  96 W6        29.96R VSB 3/4
PRAIRIE DU CHI LGT RAIN  67  65  92 CALM      29.96S
PLATTEVILLE    CLOUDY    72  70  94 S16G25    29.99S
$$

WIZ056-057-062-063-064-067-068-240600-
SOUTH CENTRAL WISCONSIN

CITY           SKY/WX    TMP DP  RH WIND       PRES   REMARKS
REEDSBURG      NOT AVBL
BARABOO/DELLS  CLOUDY    72  64  74 SE15G25   29.96F
LONE ROCK      NOT AVBL
MINERAL POINT  CLOUDY    72  70  94 S12G21    29.98F
MADISON        CLOUDY    73  65  75 S18G25    29.99F
MIDDLETON      CLOUDY    74  66  75 S13G20    30.00F
WATERTOWN      CLOUDY    70  65  83 SE8       30.02F
MONROE         CLOUDY    70  64  83 S18G25    30.01S
JANESVILLE     CLOUDY    73  64  73 S15G21    30.02F
$$

WIZ051-052-058>065-066-070>072-240600-
SOUTHEAST WISCONSIN

CITY           SKY/WX    TMP DP  RH WIND       PRES   REMARKS
MILWAUKEE      MOCLDY    73  61  65 S9        30.04F
WAUKESHA       MOCLDY    68  59  73 SE12      30.06F
MILWAUKEE/TIMM PTCLDY    72  57  60 S9        30.06F
RACINE         CLOUDY    73  63  70 S13       30.07F
BURLINGTON     CLOUDY    70  61  73 S7        30.05F
KENOSHA        CLOUDY    73  62  68 S9        30.06F
FOND DU LAC    CLOUDY    69  62  78 S9        30.02F
SHEBOYGAN      PTCLDY    66  61  84 S8        30.04F
WEST BEND      PTCLDY    68  59  73 S7        30.04F
JUNEAU         CLOUDY    69  63  81 SE12      30.03F
$$

LSZ147-162-240600-
LAKE SUPERIOR

STATION/POSITION TIME  TEMP    WIND        PRES    WAVE
                       AIR SEA DIR/SP/G            HT/PER
                 (UTC) (F)     (DEG/KT/KT) (MB)    (FT/S)
W MID LAKE BUOY  0350   70 67  180/ 10/ 12 1011.7S   1/ 3
DEVILS ISLAND    0400   73     190/  8/ 13 1011.3F
PORT WING        0400   74     160/ 11/ 16 1011.2F
SAXON HARBOR     0400   74     180/  4/  9 1012.2
$$

LMZ867-665-643>646-240600-
LAKE MICHIGAN

STATION/POSITION TIME  TEMP    WIND        PRES    WAVE
                       AIR SEA DIR/SP/G            HT/PER
                 (UTC) (F)     (DEG/KT/KT) (MB)    (FT/S)
CHAMBERS ISLAND  0400   71     170/  7/ 14 1016.6F
S GREEN BAY BUOY 0400   72 73  180/ 16/ 17 1016.2F
N MID LAKE BUOY  0350   72 71  190/ 16/ 19 1016.5F   6/ 7
NORTHPORT PIER   0300   69     160/  7/ 13 1017.3F
SISTER BAY       0422   70     200/ 16/ 21   N/A
KEWAUNEE LAKESHO 0400   65     180/  7/  9 1017.0F
SHEBOYGAN LAKESH 0400   67     180/ 15/ 16 1017.0F
PORT WASHINGTON  0400   64     200/  4/  7 1018.3F
ATWATER BUOY     0400   65 53  170/  8/ 10   N/A
MILWAUKEE LAKESH 0410   66     160/ 10/ 11   N/A
S MID LAKE BUOY  0350   76 75  160/ 16/ 19 1018.3F   3/ 5
KENOSHA   LAKESH 0400   68     170/ 11/ 15 1018.3S
$$

TC  - TEMPERATURE IN CELSIUS
VSB - VISIBILITY IN STATUTE MILES
WCI - WIND CHILL INDEX
HX  - HEAT INDEX





USA.gov is the U.S. government's official web portal to all federal, state and local government web resources and services.